Weather History for KSTS - February, 2011

Change the Weather History Date:

Monday, February 7, 2011

  Actual Average Record
Temperature  
Mean Temperature 59 °F 49 °F  
Max Temperature 77 °F 59 °F 77 °F (2011)
Min Temperature 40 °F 38 °F 33 °F (2008)
Degree Days  
Heating Degree Days 6    
Month to date heating degree days 65  
Since 1 July heating degree days 1662  
Cooling Degree Days 0    
Month to date cooling degree days 0  
Year to date cooling degree days 0  
Growing Degree Days 8 (Base 50)    
Moisture  
Dew Point 39 °F    
Average Humidity 58    
Maximum Humidity 96    
Minimum Humidity 19    
Precipitation  
Precipitation 0.00 in 0.20 in 1.42 in (2014)
Month to date precipitation 0.00 1.44  
Year to date precipitation 1.85 8.49  
Since 1 July precipitation 20.72  
Sea Level Pressure  
Sea Level Pressure 30.14 in    
Wind  
Wind Speed 7 mph (NW)    
Max Wind Speed 21 mph    
Max Gust Speed 29 mph    
Visibility 10 miles    
Events      
T = Trace of Precipitation, MM = Missing Value Source: NWS Daily Summary

Daily Weather History Graph

Daily Weather History Graph

Search for Another Location

Airport or City:

Trip Planner

Search our weather history database for the weather conditions in past years. The results will help you decide how hot, cold, wet, or windy it might be!

Date:

Astronomy

Feb. 07, 2011 Rise Set
Actual Time 7:11 AM PST 5:40 PM PST
Civil Twilight 6:43 AM PST 6:07 PM PST
Nautical Twilight 6:12 AM PST 6:39 PM PST
Astronomical Twilight 5:41 AM PST 7:10 PM PST
Moon 8:59 AM PST (2/7) 10:22 PM PST (2/7)
Length of Visible Light 11h 24m
Length of Day
10h 29m
Waxing Crescent, 19% of the Moon is Illuminated
Feb 7
Waxing Crescent
Feb 10
First Quarter
Feb 18
Full
Feb 24
Last Quarter
Mar 4
New

Hourly Weather History & Observations

Time (PST) Temp. Windchill Dew Point Humidity Pressure Visibility Wind Dir Wind Speed Gust Speed Precip Events Conditions
12:53 AM 50.0 °F - 45.0 °F 83% 30.22 in 10.0 mi WNW 4.6 mph - N/A   Clear
1:53 AM 46.9 °F - 44.1 °F 90% 30.22 in 10.0 mi Calm Calm - N/A   Clear
2:53 AM 45.0 °F - 43.0 °F 93% 30.22 in 10.0 mi Calm Calm - N/A   Clear
3:53 AM 44.1 °F - 42.1 °F 93% 30.22 in 10.0 mi Calm Calm - N/A   Clear
4:53 AM 42.1 °F 40.2 °F 41.0 °F 96% 30.22 in 5.0 mi West 3.5 mph - N/A   Clear
5:53 AM 42.1 °F - 39.9 °F 92% 30.22 in 10.0 mi Calm Calm - N/A   Clear
6:53 AM 41.0 °F - 39.0 °F 93% 30.21 in 10.0 mi Calm Calm - N/A   Mostly Cloudy
7:53 AM 44.1 °F - 42.1 °F 93% 30.21 in 10.0 mi Calm Calm - N/A   Scattered Clouds
8:53 AM 51.1 °F - 45.0 °F 80% 30.23 in 10.0 mi North 3.5 mph - N/A   Partly Cloudy
9:53 AM 57.0 °F - 46.0 °F 67% 30.21 in 10.0 mi Calm Calm - N/A   Partly Cloudy
10:53 AM 63.0 °F - 46.0 °F 54% 30.19 in 10.0 mi Calm Calm - N/A   Clear
12:53 PM 72.0 °F - 43.0 °F 35% 30.13 in 10.0 mi WSW 4.6 mph - N/A   Partly Cloudy
1:21 PM 71.6 °F - 41.0 °F 33% 30.12 in 10.0 mi West 4.6 mph - N/A   Partly Cloudy
1:53 PM 72.0 °F - 44.1 °F 37% 30.09 in 10.0 mi SW 4.6 mph - N/A   Partly Cloudy
2:53 PM 75.9 °F - 30.0 °F 19% 30.05 in 10.0 mi NNW 12.7 mph 24.2 mph N/A   Clear
3:53 PM 72.0 °F - 32.0 °F 23% 30.03 in 10.0 mi NW 19.6 mph 25.3 mph N/A   Clear
4:53 PM 68.0 °F - 33.1 °F 27% 30.03 in 10.0 mi NW 17.3 mph - N/A   Clear
5:53 PM 62.1 °F - 30.9 °F 31% 30.04 in 10.0 mi NW 11.5 mph 20.7 mph N/A   Clear
6:53 PM 59.0 °F - 30.0 °F 33% 30.04 in 10.0 mi NNW 12.7 mph 20.7 mph N/A   Clear
7:53 PM 55.0 °F - 33.1 °F 43% 30.05 in 10.0 mi NNW 13.8 mph 20.7 mph N/A   Clear
8:53 PM 53.1 °F - 34.0 °F 48% 30.07 in 10.0 mi NNW 15.0 mph 27.6 mph N/A   Clear
9:53 PM 51.1 °F - 35.1 °F 54% 30.10 in 10.0 mi NNW 15.0 mph 24.2 mph N/A   Clear
10:53 PM 50.0 °F - 35.1 °F 57% 30.11 in 10.0 mi North 11.5 mph 17.3 mph N/A   Clear
11:53 PM 48.0 °F - 34.0 °F 58% 30.12 in 10.0 mi North 13.8 mph - N/A   Clear